This demonstration page uses our WeatherBlox Daily Observations layout. Learn more.

Left ArrowRight Arrow

39.51506, -84.39828

Hourly Observations for March 27, 2021

Temp ( °F °C ) Dew Point ( °F °C ) Humidity (%) Winds ( mph kmh ) Pressure ( in mb ) Visibility ( mi km ) Precip ( " mm )
12:15 am 00:15 Clear 46 8 N/A N/A N N/A 30.16 1021 10 16 N/A
12:35 am 00:35 Clear 45 7 N/A N/A N N/A 30.17 1022 10 16 N/A
12:55 am 00:55 Clear with Mist and Fog 45 7 N/A N/A N N/A 30.17 1022 3 4 N/A
1:15 am 01:15 Mostly Cloudy with Mist and Fog 45 7 N/A N/A N N/A 30.17 1022 1 2 N/A
1:35 am 01:35 Clear 43 6 N/A N/A NE 3 6 30.17 1022 10 16 N/A
1:55 am 01:55 Clear 43 6 N/A N/A NNE 3 6 30.17 1022 10 16 N/A
2:15 am 02:15 Clear 43 6 N/A N/A N N/A 30.17 1022 10 16 N/A
2:35 am 02:35 Clear 43 6 N/A N/A NNE 3 6 30.16 1021 10 16 N/A
2:55 am 02:55 Clear 43 6 N/A N/A N N/A 30.16 1021 10 16 N/A
3:15 am 03:15 Clear 43 6 N/A N/A N N/A 30.16 1021 10 16 N/A
3:35 am 03:35 Clear 43 6 N/A N/A N 5 7 30.16 1021 10 16 N/A
3:55 am 03:55 Clear 43 6 N/A N/A N N/A 30.16 1021 10 16 N/A
4:15 am 04:15 Clear 43 6 N/A N/A N N/A 30.15 1021 10 16 N/A
4:35 am 04:35 Clear 43 6 N/A N/A N N/A 30.15 1021 10 16 N/A
4:55 am 04:55 Clear 41 5 N/A N/A N N/A 30.15 1021 10 16 N/A
5:15 am 05:15 Clear 41 5 N/A N/A N N/A 30.16 1021 10 16 N/A
5:35 am 05:35 Hazy 41 5 N/A N/A N N/A 30.16 1021 4 6 N/A
5:55 am 05:55 Hazy 41 5 N/A N/A N N/A 30.16 1021 7 11 N/A
6:15 am 06:15 Clear 39 4 N/A N/A N N/A 30.16 1021 7 11 N/A
6:35 am 06:35 Clear 39 4 N/A N/A NE 5 7 30.16 1021 7 11 N/A
6:55 am 06:55 Hazy 39 4 N/A N/A ENE 3 6 30.16 1021 7 11 N/A
7:15 am 07:15 Hazy 39 4 N/A N/A N N/A 30.16 1021 5 8 N/A
7:35 am 07:35 Mostly Cloudy with Fog 39 4 N/A N/A N 3 6 30.15 1021 0 0 N/A
7:55 am 07:55 Sunny with Mist and Fog 39 4 N/A N/A N 3 6 30.15 1021 3 5 N/A
8:15 am 08:15 Hazy 39 4 N/A N/A N 3 6 30.15 1021 4 6 N/A
8:35 am 08:35 Hazy 43 6 N/A N/A N N/A 30.15 1021 4 6 N/A
8:55 am 08:55 Hazy 46 8 N/A N/A NNE 3 6 30.14 1021 7 11 N/A
9:15 am 09:15 Sunny 46 8 N/A N/A N N/A 30.13 1020 7 11 N/A
9:35 am 09:35 Sunny 50 9.9 49 9.3 96 96 N N/A 30.11 1020 10 16 N/A
9:55 am 09:55 Sunny 54 12 48 8.9 82 82 E 7 11 30.10 1019 10 16 N/A
10:15 am 10:15 Sunny 54 12.4 49 9.3 82 82 E 7 11 30.09 1019 10 16 N/A
10:35 am 10:35 Sunny 55 12.9 48 9 77 77 ESE 7 11 30.09 1019 10 16 N/A
10:55 am 10:55 Sunny 56 13.1 48 9 76 76 ESE 7 11 30.09 1019 10 16 N/A
11:15 am 11:15 Sunny 57 13.7 49 9.3 75 75 ESE 12 19 30.08 1019 10 16 N/A
11:35 am 11:35 Sunny 58 14.4 49 9.4 72 72 SE 8 13 30.08 1019 10 16 N/A
11:55 am 11:55 Sunny 59 15.1 50 9.8 71 71 SE 9 15 30.07 1018 10 16 N/A
12:15 pm 12:15 Sunny 60 15.5 50 9.8 69 69 SE 8 13 30.06 1018 10 16 N/A
12:35 pm 12:35 Sunny 61 16 50 10 68 68 S 12 19 30.04 1017 10 16 N/A
12:55 pm 12:55 Sunny 62 16.6 50 9.8 64 64 SE 7 11 30.04 1017 10 16 N/A
1:15 pm 13:15 Sunny 63 17 50 9.9 63 63 SSW 9 15 30.03 1017 10 16 N/A
1:35 pm 13:35 Sunny 62 16.9 50 9.9 64 64 S 8 13 30.02 1017 10 16 N/A
1:55 pm 13:55 Sunny 65 18.6 50 9.9 57 57 SW 9 15 30.01 1016 10 16 N/A
2:15 pm 14:15 Sunny 66 19 50 9.9 56 56 SSW 12 19 30.01 1016 10 16 N/A
2:35 pm 14:35 Sunny 67 19.5 49 9.7 53 53 S 14 22 29.99 1015 10 16 N/A
2:55 pm 14:55 Sunny 68 20.1 49 9.6 51 51 S 12 19 29.97 1015 10 16 N/A
3:15 pm 15:15 Sunny 69 20.7 48 9.1 48 48 SW 12 19 29.95 1014 10 16 N/A
3:35 pm 15:35 Sunny 70 21.3 48 8.8 45 45 SSW 13 20 29.94 1014 10 16 N/A
3:55 pm 15:55 Sunny 70 21.3 47 8.5 44 44 SW 13 20 29.93 1014 10 16 N/A
4:15 pm 16:15 Sunny 71 21.8 47 8.6 43 43 SSW 10 17 29.92 1013 10 16 N/A
4:35 pm 16:35 Sunny 71 21.9 45 7.3 39 39 S 10 17 29.91 1013 10 16 N/A
4:55 pm 16:55 Sunny 72 22.3 47 8.2 41 41 SSW 10 17 29.91 1013 10 16 N/A
5:15 pm 17:15 Sunny 72 22.4 48 9.1 43 43 SSW 12 19 29.90 1012 10 16 N/A
5:35 pm 17:35 Sunny 72 22.3 48 8.7 42 42 SW 14 22 29.90 1013 10 16 N/A
5:55 pm 17:55 Sunny 72 22.2 48 8.8 42 42 S 10 17 29.90 1013 10 16 N/A
6:15 pm 18:15 Sunny 72 22.1 48 8.7 42 42 S 12 19 29.89 1012 10 16 N/A
6:35 pm 18:35 Sunny 71 21.9 49 9.2 44 44 S 7 11 29.88 1012 10 16 N/A
6:55 pm 18:55 Sunny 71 21.7 49 9.2 45 45 SSW 8 13 29.88 1012 10 16 N/A
7:15 pm 19:15 Sunny 70 21.3 48 9.1 46 46 S 10 17 29.87 1012 10 16 N/A
7:35 pm 19:35 Sunny 69 20.8 49 9.3 48 48 S 8 13 29.86 1011 10 16 N/A
7:55 pm 19:55 Sunny 69 20.5 49 9.4 49 49 S 7 11 29.86 1011 10 16 N/A
8:15 pm 20:15 Clear 68 19.9 50 10 53 53 S 8 13 29.85 1011 10 16 N/A
8:35 pm 20:35 Clear 67 19.5 51 10.4 56 56 S 9 15 29.86 1011 10 16 N/A
8:55 pm 20:55 Clear 67 19.2 51 10.7 58 58 S 9 15 29.85 1011 10 16 N/A
9:15 pm 21:15 Clear 65 18.3 51 10.8 62 62 SSE 7 11 29.84 1010 10 16 N/A
9:35 pm 21:35 Clear 65 18.4 54 12 66 66 S 14 22 29.84 1010 10 16 N/A
9:55 pm 21:55 Clear 64 18 55 13 73 73 S 16 26 29.86 1011 10 16 N/A
10:15 pm 22:15 Clear 64 18 57 13.8 77 77 SSW 10 17 29.85 1011 10 16 N/A
10:35 pm 22:35 Clear 63 17.3 57 13.8 80 80 S 9 15 29.83 1010 10 16 N/A
10:55 pm 22:55 Clear 62 16.8 57 13.9 83 83 SSW 9 15 29.82 1010 10 16 N/A
11:15 pm 23:15 Mostly Cloudy 63 17.3 58 14.3 83 83 S 10 17 29.81 1010 10 16 N/A
11:35 pm 23:35 Cloudy 64 17.5 58 14.6 83 83 SSW 12 19 29.79 1009 10 16 N/A
11:55 pm 23:55 Cloudy 64 17.6 58 14.7 83 83 SSW 12 19 29.80 1009 10 16 N/A

Powered by AerisWeather